Current Version              Previous Version:    01  02  03  04  05  06  07  08  09  10  11  12  13  14  15  16  17  18  19  20  21  22  23  24  25  26  27  28  29  30  
   31  32  33  34  35  36  37  38  39  40  41  42  43  44  45  46  47  48  49  50  51  52  53  54  55  56  57  58  59  60  

[Printable]
353
ASUS44 KFWD 300810
RWRTX
NORTH TEXAS HOURLY WEATHER ROUNDUP
NATIONAL WEATHER SERVICE FORT WORTH TX
300 AM CDT TUE SEP 30 2014

NOTE: "FAIR" INDICATES FEW OR NO CLOUDS BELOW 12,000 FEET WITH NO
SIGNIFICANT WEATHER AND/OR OBSTRUCTIONS TO VISIBILITY.

TXZ118-119-300900-
DALLAS/FORT WORTH METROPLEX

CITY           SKY/WX    TMP DP  RH WIND       PRES   REMARKS
DFW AIRPORT    MOCLDY    73  64  73 SE3       29.90S
DALLAS LOVE    MOCLDY    73  65  75 SE8       29.90S
FTW MEACHAM    PTCLDY    74  65  73 E5        29.90S
DAL-EXECUTIVE  CLEAR     69  64  84 SE3       29.91R
FTW-ALLIANCE   PTCLDY    68  63  84 CALM      29.91R
FTW-NAS-JRB    PTCLDY    77  63  61 CALM      29.95R
FTW-SPINKS     PTCLDY    70  64  81 S3        29.92S
ARLINGTON      PTCLDY    73  65  75 SE3       29.90S
GRAND PRAIRIE  PTCLDY    74  64  72 SE5       29.92S
ADDISON        CLEAR     74  64  68 SE7       29.92S
MESQUITE       CLEAR     68  64  85 CALM      29.91S
LANCASTER      CLEAR     67  58  72 CALM      29.92S
$$

TXZ091>094-102>105-117-120-121-131>134-300900-
NORTH CENTRAL TEXAS

CITY           SKY/WX    TMP DP  RH WIND       PRES   REMARKS
SHRMAN/DENISON CLEAR     72  60  65 SE8       29.93S
GAINESVILLE    PTCLDY    68  60  76 E3        29.94S
BOWIE          CLEAR     66  62  85 CALM      29.92S
BRIDGEPORT     CLEAR     69  60  72 SE3       29.93S
DECATUR        CLEAR     70  61  74 SE6       29.92S
DENTON         PTCLDY    67  62  84 CALM      29.91S
MCKINNEY       CLEAR     66  61  84 E3        29.91F
GREENVILLE     CLEAR     64  61  88 CALM      29.92S
ROCKWALL       CLEAR     67  64  89 E5        29.90S
TERRELL        CLEAR     69  65  86 CALM      29.91S
WAXAHACHIE     CLEAR     69  63  81 CALM      29.92S
CLEBURNE       PTCLDY    70  66  88 CALM      29.93S
GRANBURY       PTCLDY    72  63  75 SE5       29.92S
$$

TXZ083>090-098>101-113>116-127>130-139>142-154-155-300900-
WESTERN NORTH TEXAS

CITY           SKY/WX    TMP DP  RH WIND       PRES   REMARKS
WICHITA FALLS  CLEAR     68  61  78 SE8       29.90S
WF-KICKAPOO    CLEAR     67  60  78 SE5       29.92S
VERNON         CLEAR     71  57  62 SE10      29.91S
ABILENE        PTCLDY    68  55  63 S8        29.93S
ABILENE-DYESS  CLEAR     65  55  68 S5        29.92S
BRECKENRIDGE   CLEAR     68  55  61 SE7       29.91S
GRAHAM         PTCLDY    72  61  69 SE6       29.90R
MINERAL WELLS  PTCLDY    69  62  78 SE7       29.90S
STEPHENVILLE   CLEAR     67  57  70 SE3       29.95F
COMANCHE       CLEAR     65  55  69 CALM      29.93S
BROWNWOOD      PTCLDY    61  55  82 CALM      29.93S
COLEMAN        CLEAR     66  55  68 S3        29.94S
BRADY          CLEAR     66  57  72 SE5       29.94S
$$

TXZ143>147-156>162-174-175-300900-
CENTRAL TEXAS

CITY           SKY/WX    TMP DP  RH WIND       PRES   REMARKS
WACO           CLEAR     66  61  84 CALM      29.90S
WACO-MCGREGOR  CLEAR     66  52  59 CALM      29.92S
HILLSBORO      CLEAR     72  64  77 E7        29.91R
CORSICANA      CLEAR     72  67  84 E5        29.91S
MEXIA          CLEAR     71  68  89 CALM      29.90R
HEARNE         CLEAR     71  66  85 CALM      29.90R
CAMERON        MOCLDY    70  63  80 CALM      29.90R
TEMPLE         PTCLDY    66  55  68 NE7       29.90F
KILLEEN        CLEAR     72  61  68 CALM      29.91S
KILLEEN-SKYLRK CLEAR     66  55  68 CALM      29.90S
FORT HOOD      CLEAR     70  62  76 CALM      29.91S
GATESVILLE     CLEAR     64  57  77 CALM      29.94S
HAMILTON       CLEAR     67  57  69 S5        29.93S
LAMPASAS       CLEAR     71  64  78 W3        29.91S
$$

TXZ095>097-106>112-122>126-135>138-148>153-164>167-300900-
EAST TEXAS

CITY           SKY/WX    TMP DP  RH WIND       PRES   REMARKS
PARIS          MOCLDY    68  57  68 E6        29.93S
SULPHUR SPRNGS MOCLDY    67  62  82 CALM      29.94S
MOUNT PLEASANT CLOUDY    67  64  89 CALM      29.92S
GILMER         PTCLDY    70  64  83 CALM      29.92F
MINEOLA        CLEAR     66  64  94 CALM      29.92S
TYLER          PTCLDY    73  66  78 CALM      29.90F
LONGVIEW       MOCLDY    69  65  86 CALM      29.90S
MARSHALL       CLEAR     68  64  87 CALM      29.92S
ATHENS         CLOUDY    70  64  83 CALM      29.90S
PALESTINE      PTCLDY    72  68  89 CALM      29.91S
JACKSONVILLE   CLEAR     73  67  83 CALM      29.93R
HENDERSON      MOCLDY    69  67  94 CALM      29.91S
NACOGDOCHES    CLEAR     66  64  94 CALM      29.90S
LUFKIN         CLEAR     72  68  87 CALM      29.89R
$$

SUPPLEMENTAL OBSERVATIONS (CENTRAL)

CITY           SKY/WX    TMP DP  RH WIND       PRES   REMARKS
CADDO GRASSLND   N/A     63  57  82 CALM        N/A
PAT MAYSE LAKE   N/A    N/A N/A N/A NW2         N/A
GREENVILLE       N/A     66  61  82 NE1         N/A
CEDAR HILL       N/A     73  64  73 SE5         N/A
PALESTINE        N/A     68  64  88 CALM        N/A
MCGREGOR         N/A     66  57  72 CALM        N/A
TEMPLE           N/A     72  61  68 N1          N/A
$$

SUPPLEMENTAL OBSERVATIONS (WEST)

CITY           SKY/WX    TMP DP  RH WIND       PRES   REMARKS
MILLERS CREEK    N/A     70  52  52 SE8         N/A
POSSUM KINGDOM   N/A     70  57  64 SE5         N/A
LBJ GRASSLAND    N/A     72  63  73 E5          N/A
GRANBURY         N/A     72  63  73 SE6         N/A
HAMBY            N/A     72  55  56 SE9         N/A
IVIE RESERVOIR   N/A     64  55  72 SE3         N/A
COLORADO BEND    N/A     66  57  72 SW1         N/A
$$

SUPPLEMENTAL OBSERVATIONS (EAST)

CITY           SKY/WX    TMP DP  RH WIND       PRES   REMARKS
CLARKSVILLE      N/A     66  61  82 NE2         N/A
TEXARKANA        N/A     66  63  88 CALM        N/A
LINDEN           N/A     70  63  78 CALM        N/A
GILMER           N/A     70  64  83 CALM        N/A
HENDERSON        N/A     70  64  83 E1          N/A
LUFKIN           N/A     70  66  88 MISG        N/A
N SABINE NF      N/A     66  63  88 MISG        N/A
S SABINE NF      N/A     68  66  94 CALM        N/A
$$

SUPPLEMENTAL OBSERVATIONS ARE A COLLECTION OF AUTOMATED INSTRUMENTS
THAT ARE MAINTAINED BY A VARIETY OF FEDERAL AND STATE AGENCIES.
CERTAIN ELEMENTS...SUCH AS HUMIDITY VALUES AND SUSTAINED WIND
SPEEDS...MAY BE APPROXIMATED.